Weather History for KARG - December, 2010

Change the Weather History Date:

Saturday, December 11, 2010

  Actual Average Record
Temperature  
Mean Temperature 48 °F -  
Max Temperature 53 °F 47 °F 73 °F (1996)
Min Temperature 42 °F 32 °F 17 °F (2000)
Degree Days  
Heating Degree Days 18    
Moisture  
Dew Point 41 °F    
Average Humidity 79    
Maximum Humidity 93    
Minimum Humidity 57    
Precipitation  
Precipitation 0.72 in - - ()
Sea Level Pressure  
Sea Level Pressure 29.79 in    
Wind  
Wind Speed 8 mph (South)    
Max Wind Speed 21 mph    
Max Gust Speed 26 mph    
Visibility 7 miles    
Events      
Averages and records for this station are not official NWS values.
T = Trace of Precipitation, MM = Missing Value Source: NWS Daily Summary

Daily Weather History Graph

Daily Weather History Graph

Search for Another Location

Airport or City:

Trip Planner

Search our weather history database for the weather conditions in past years. The results will help you decide how hot, cold, wet, or windy it might be!

Date:

Astronomy

Dec. 11, 2010 Rise Set
Actual Time 7:04 AM CST 4:49 PM CST
Civil Twilight 6:35 AM CST 5:18 PM CST
Nautical Twilight 6:03 AM CST 5:50 PM CST
Astronomical Twilight 5:32 AM CST 6:21 PM CST
Moon 11:04 AM CST (12/11) 10:45 PM CST (12/11)
Length of Visible Light 10h 42m
Length of Day
9h 44m
Waxing Crescent, 33% of the Moon is Illuminated
Dec 11
Waxing Crescent
Dec 13
First Quarter
Dec 21
Full
Dec 27
Last Quarter
Jan 4
New

Hourly Weather History & Observations

Time (CST) Temp. Windchill Dew Point Humidity Pressure Visibility Wind Dir Wind Speed Gust Speed Precip Events Conditions
12:15 AM 44.6 °F - 35.6 °F 71% 29.99 in 10.0 mi Calm Calm - N/A   Overcast
12:35 AM 44.6 °F - 35.6 °F 71% 29.98 in 10.0 mi Calm Calm - N/A   Overcast
1:15 AM 44.6 °F 42.2 °F 35.6 °F 71% 29.97 in 10.0 mi East 4.6 mph - N/A   Mostly Cloudy
1:35 AM 42.8 °F 40.1 °F 35.6 °F 76% 29.97 in 10.0 mi East 4.6 mph - N/A   Mostly Cloudy
1:55 AM 44.6 °F 42.2 °F 37.4 °F 76% 29.97 in 10.0 mi ENE 4.6 mph - N/A   Overcast
2:15 AM 44.6 °F 42.2 °F 35.6 °F 71% 29.96 in 10.0 mi East 4.6 mph - N/A   Overcast
2:35 AM 44.6 °F 41.4 °F 35.6 °F 71% 29.95 in 10.0 mi ESE 5.8 mph - N/A   Overcast
2:55 AM 44.6 °F 41.4 °F 35.6 °F 71% 29.94 in 10.0 mi ESE 5.8 mph - N/A   Overcast
3:15 AM 44.6 °F 41.4 °F 35.6 °F 71% 29.93 in 10.0 mi ESE 5.8 mph - N/A   Overcast
3:35 AM 44.6 °F 42.2 °F 35.6 °F 71% 29.92 in 10.0 mi ESE 4.6 mph - N/A   Overcast
3:55 AM 44.6 °F 40.7 °F 35.6 °F 71% 29.91 in 10.0 mi SE 6.9 mph - N/A   Overcast
4:15 AM 44.6 °F 43.1 °F 35.6 °F 71% 29.90 in 10.0 mi SE 3.5 mph - N/A   Overcast
4:35 AM 44.6 °F 41.4 °F 35.6 °F 71% 29.90 in 9.0 mi SSE 5.8 mph - N/A   Overcast
4:55 AM 42.8 °F 39.3 °F 37.4 °F 81% 29.88 in 6.0 mi SSE 5.8 mph - 0.03 in   Overcast
5:15 AM 42.8 °F 40.1 °F 37.4 °F 81% 29.88 in 10.0 mi South 4.6 mph - N/A   Overcast
5:35 AM 44.6 °F 42.2 °F 37.4 °F 76% 29.87 in 8.0 mi SSE 4.6 mph - N/A   Overcast
5:55 AM 44.6 °F 41.4 °F 39.2 °F 81% 29.87 in 8.0 mi South 5.8 mph - 0.02 in   Overcast
6:15 AM 44.6 °F 40.7 °F 39.2 °F 81% 29.86 in 5.0 mi South 6.9 mph - 0.08 in   Overcast
6:35 AM 44.6 °F 39.2 °F 39.2 °F 81% 29.85 in 5.0 mi South 10.4 mph - 0.13 in   Overcast
6:55 AM 44.6 °F 38.1 °F 42.8 °F 93% 29.84 in 3.0 mi South 13.8 mph - 0.15 in   Overcast
7:15 AM 46.4 °F 41.1 °F 42.8 °F 87% 29.84 in 3.0 mi SSE 11.5 mph - 0.03 in   Overcast
7:35 AM 46.4 °F 40.4 °F 42.8 °F 87% 29.82 in 6.0 mi SSE 13.8 mph - 0.10 in   Overcast
7:55 AM 46.4 °F 39.8 °F 44.6 °F 93% 29.82 in 4.0 mi South 16.1 mph - 0.28 in   Overcast
8:15 AM 46.4 °F 40.7 °F 42.8 °F 87% 29.81 in 8.0 mi SSE 12.7 mph - 0.02 in   Overcast
8:35 AM 46.4 °F 40.4 °F 42.8 °F 87% 29.80 in 7.0 mi SSE 13.8 mph - 0.02 in   Overcast
8:55 AM 46.4 °F 40.4 °F 42.8 °F 87% 29.80 in 5.0 mi SSE 13.8 mph - 0.02 in   Overcast
9:15 AM 46.4 °F 39.5 °F 42.8 °F 87% 29.79 in 5.0 mi South 17.3 mph - N/A   Overcast
9:55 AM 48.2 °F - 44.6 °F 87% 29.76 in 5.0 mi South 18.4 mph - 0.03 in   Overcast
10:15 AM 48.2 °F - 44.6 °F 87% 29.76 in 5.0 mi SSE 11.5 mph - 0.13 in   Overcast
10:35 AM 48.2 °F - 44.6 °F 87% 29.75 in 4.0 mi South 12.7 mph - 0.16 in   Overcast
10:55 AM 48.2 °F - 44.6 °F 87% 29.74 in 4.0 mi South 12.7 mph - 0.18 in   Overcast
11:15 AM 48.2 °F - 44.6 °F 87% 29.73 in 2.0 mi SSW 12.7 mph - N/A   Overcast
11:35 AM 48.2 °F - 46.4 °F 93% 29.71 in 3.0 mi SSW 12.7 mph - 0.01 in   Overcast
11:55 AM 48.2 °F - 46.4 °F 93% 29.70 in 2.0 mi SSW 13.8 mph - 0.01 in   Overcast
12:15 PM 48.2 °F - 46.4 °F 93% 29.70 in 1.8 mi SSW 12.7 mph - N/A   Overcast
12:35 PM 50.0 °F - 46.4 °F 87% 29.67 in 2.0 mi SSW 12.7 mph - N/A   Overcast
12:55 PM 51.8 °F - 48.2 °F 88% 29.66 in 2.0 mi SSW 13.8 mph - N/A   Overcast
1:15 PM 51.8 °F - 48.2 °F 88% 29.66 in 2.5 mi SW 13.8 mph - N/A   Overcast
1:35 PM 51.8 °F - 48.2 °F 88% 29.67 in 3.0 mi WSW 12.7 mph - N/A   Overcast
1:55 PM 51.8 °F - 48.2 °F 88% 29.66 in 4.0 mi WSW 9.2 mph - N/A   Scattered Clouds
2:15 PM 51.8 °F - 48.2 °F 88% 29.66 in 6.0 mi WSW 8.1 mph - N/A   Mostly Cloudy
2:35 PM 51.8 °F - 48.2 °F 88% 29.66 in 5.0 mi West 6.9 mph - N/A   Overcast
2:55 PM 53.6 °F - 48.2 °F 82% 29.67 in 10.0 mi West 13.8 mph 20.7 mph N/A   Mostly Cloudy
3:15 PM 51.8 °F - 44.6 °F 76% 29.68 in 10.0 mi West 15.0 mph 20.7 mph N/A   Mostly Cloudy
3:35 PM 51.8 °F - 41.0 °F 67% 29.68 in 10.0 mi West 15.0 mph 21.9 mph N/A   Partly Cloudy
3:55 PM 51.8 °F - 41.0 °F 67% 29.68 in 10.0 mi WNW 12.7 mph - N/A   Clear
4:15 PM 51.8 °F - 42.8 °F 71% 29.68 in 10.0 mi WNW 18.4 mph - N/A   Partly Cloudy
4:35 PM 48.2 °F - 37.4 °F 66% 29.69 in 10.0 mi WNW 19.6 mph 25.3 mph N/A   Clear
4:55 PM 46.4 °F 39.0 °F 35.6 °F 66% 29.70 in 10.0 mi WNW 19.6 mph 26.5 mph N/A   Clear
5:15 PM 46.4 °F 39.2 °F 33.8 °F 62% 29.70 in 10.0 mi WNW 18.4 mph 26.5 mph N/A   Clear
5:35 PM 44.6 °F 38.1 °F 32.0 °F 61% 29.71 in 10.0 mi NW 13.8 mph 21.9 mph N/A   Clear
5:55 PM 44.6 °F 36.4 °F 30.2 °F 57% 29.71 in 10.0 mi NW 20.7 mph - N/A   Clear
6:15 PM 42.8 °F 34.3 °F 30.2 °F 61% 29.72 in 10.0 mi NW 19.6 mph 24.2 mph N/A   Clear
6:35 PM 42.8 °F 33.1 °F 28.4 °F 57% 29.73 in 10.0 mi NW 25.3 mph 32.2 mph N/A   Clear
6:55 PM 41.0 °F 31.6 °F 28.4 °F 61% 29.74 in 10.0 mi NW 20.7 mph 31.1 mph N/A   Clear
7:15 PM 41.0 °F 31.6 °F 26.6 °F 57% 29.74 in 10.0 mi NW 20.7 mph 31.1 mph N/A   Clear
7:35 PM 39.2 °F 29.3 °F 24.8 °F 56% 29.75 in 10.0 mi NW 20.7 mph 29.9 mph N/A   Clear
7:55 PM 37.4 °F 26.4 °F 24.8 °F 60% 29.75 in 10.0 mi WNW 23.0 mph 31.1 mph N/A   Clear
8:15 PM 37.4 °F 26.4 °F 21.2 °F 52% 29.76 in 10.0 mi WNW 23.0 mph 28.8 mph N/A   Clear
8:35 PM 35.6 °F 23.4 °F 21.2 °F 56% 29.77 in 10.0 mi WNW 25.3 mph 34.5 mph N/A   Partly Cloudy
8:55 PM 35.6 °F 23.7 °F 19.4 °F 52% 29.77 in 10.0 mi NW 24.2 mph 32.2 mph N/A   Partly Cloudy
9:15 PM 33.8 °F 21.9 °F 17.6 °F 52% 29.79 in 10.0 mi NW 21.9 mph 32.2 mph N/A   Partly Cloudy
9:35 PM 33.8 °F 22.8 °F 15.8 °F 48% 29.79 in 10.0 mi WNW 18.4 mph 29.9 mph N/A   Scattered Clouds
9:55 PM 33.8 °F 22.8 °F 15.8 °F 48% 29.79 in 10.0 mi WNW 18.4 mph 27.6 mph N/A   Mostly Cloudy
10:15 PM - - - N/A% 29.79 in 10.0 mi West 32.2 mph 40.3 mph N/A   Overcast
10:35 PM - - - N/A% 29.81 in 10.0 mi West 24.2 mph 34.5 mph N/A   Mostly Cloudy
10:55 PM 28.4 °F 14.1 °F 10.4 °F 47% 29.83 in 10.0 mi WNW 24.2 mph 34.5 mph N/A   Mostly Cloudy
11:15 PM 28.4 °F 14.1 °F 10.4 °F 47% 29.85 in 10.0 mi WNW 24.2 mph 35.7 mph N/A   Overcast
11:35 PM 26.6 °F 12.0 °F 10.4 °F 51% 29.85 in 10.0 mi WNW 23.0 mph 32.2 mph N/A   Overcast
11:55 PM 26.6 °F 11.4 °F 10.4 °F 51% 29.84 in 10.0 mi WNW 25.3 mph 34.5 mph N/A   Overcast